Language: 


Des rapports , des résumés tant et plus, au choix de chacun....


Données statistiques de la station
Quotidien Rapport Octobre 27, 2017 Unités:  Anglais    Métrique   les deux
« Précédent Jour
Suivant Jour »
Quotidien Hebdomadaire Mensuel Annuel Actuel
  Haut: Bas: Moyen:
Température: 62.4 °F 32 °F 55.4 °F
Pt de rosée: 57.2 °F 44.6 °F 52.2 °F
Humidité: 98 % 0 % 88 %
Vitesse du vent: 11.2 mph 0 mph 2.4 mph
Rafales: 15.9 mph - -
Vent:- - NW
Pression: 30.5 in 0 in -
Précipitation: 0.01 in    
Historical Graphs
 
 
Données statistiques pour Octobre 27, 2017
Heure Température Point de rosée Pression Vent Vitesse du vent Refales Humidité Pluie (taux horaire)
00:04 57.6 °F 57.2 °F 30.2 in Calm   2.9 mph 98 % 0 in
00:09 57.6 °F 57.2 °F 30.2 in Calm   1.1 mph 98 % 0 in
00:14 57.6 °F 57.2 °F 30.2 in Calm   1.1 mph 98 % 0 in
00:19 57.4 °F 57.2 °F 30.2 in Calm   1.1 mph 98 % 0 in
00:24 57.4 °F 57.2 °F 30.2 in Calm     98 % 0 in
00:29 57.4 °F 57.2 °F 30.2 in Calm   3.4 mph 98 % 0 in
00:34 57.2 °F 57.2 °F 30.2 in North 3.6 mph 3.6 mph 98 % 0 in
00:39 57.2 °F 57.2 °F 30.2 in Calm   3.6 mph 98 % 0 in
00:44 57.2 °F 57.2 °F 30.2 in Calm   3.1 mph 98 % 0 in
00:49 57 °F 57.2 °F 30.2 in North 2 mph 4.5 mph 98 % 0 in
00:54 57 °F 57.2 °F 30.2 in Calm   4.5 mph 98 % 0 in
00:59 56.8 °F 57.2 °F 30.2 in North 3.4 mph 3.4 mph 98 % 0 in
01:04 56.8 °F 57.2 °F 30.3 in NW 2 mph 3.4 mph 98 % 0 in
01:09 56.8 °F 57.2 °F 30.3 in Calm   3.4 mph 98 % 0 in
01:14 56.8 °F 57.2 °F 30.3 in Calm   2 mph 98 % 0 in
01:19 56.8 °F 57.2 °F 30.3 in North 2.5 mph 3.6 mph 98 % 0 in
01:24 56.8 °F 57.2 °F 30.3 in Calm   3.6 mph 98 % 0 in
01:29 56.8 °F 57.2 °F 30.3 in Calm   3.4 mph 98 % 0 in
01:35 56.8 °F 57.2 °F 30.3 in NNW 1.1 mph 3.4 mph 98 % 0 in
01:40 56.8 °F 57.2 °F 30.3 in Calm   4 mph 98 % 0 in
01:45 56.8 °F 57.2 °F 30.3 in Calm   4 mph 98 % 0 in
01:50 56.8 °F 57.2 °F 30.3 in WNW 0.9 mph 3.4 mph 98 % 0 in
01:55 56.8 °F 57.2 °F 30.3 in North 2.7 mph 4 mph 98 % 0 in
02:00 56.8 °F 57.2 °F 30.3 in Calm   4 mph 98 % 0 in
02:05 56.8 °F 57.2 °F 30.3 in Calm   4 mph 98 % 0 in
02:10 56.8 °F 57.2 °F 30.3 in Calm   4 mph 98 % 0 in
02:15 56.8 °F 57.2 °F 30.3 in Calm   3.4 mph 98 % 0 in
02:20 56.8 °F 57.2 °F 30.3 in Calm   3.4 mph 98 % 0 in
02:25 57 °F 57.2 °F 30.3 in North 2.2 mph 2.2 mph 98 % 0 in
02:30 57 °F 57.2 °F 30.3 in Calm   2.2 mph 98 % 0 in
02:35 57 °F 57.2 °F 30.3 in NNW 2.5 mph 2.9 mph 98 % 0 in
02:40 57 °F 57.2 °F 30.3 in NW 2.2 mph 4.5 mph 98 % 0 in
02:45 56.8 °F 57.2 °F 30.3 in NNW 3.8 mph 6 mph 98 % 0 in
02:50 56.8 °F 57.2 °F 30.3 in NNW 1.1 mph 6 mph 98 % 0 in
02:55 56.8 °F 57.2 °F 30.3 in North 2.7 mph 3.8 mph 98 % 0 in
03:01 32 °F 57.2 °F 0 in Calm   3.8 mph 0 % 0 in
03:06 56.8 °F 57.2 °F 30.3 in Calm   3.8 mph 98 % 0 in
03:11 56.8 °F 57.2 °F 30.3 in Calm   2.2 mph 98 % 0 in
03:16 56.8 °F 57.2 °F 30.3 in Calm   1.6 mph 98 % 0 in
03:21 56.8 °F 57.2 °F 30.3 in NNW 2.9 mph 5.6 mph 98 % 0 in
03:26 57 °F 57.2 °F 30.3 in Calm   5.6 mph 98 % 0 in
03:31 57 °F 57.2 °F 30.2 in NW 3.6 mph 4.3 mph 98 % 0 in
03:37 57 °F 57.2 °F 30.2 in WNW 3.1 mph 5.8 mph 98 % 0 in
03:42 57 °F 57.2 °F 30.2 in Calm   6 mph 98 % 0 in
03:47 57 °F 57.2 °F 30.2 in North 2.7 mph 6 mph 98 % 0 in
03:52 57 °F 57.2 °F 30.2 in NNW 4 mph 6 mph 98 % 0 in
03:57 56.8 °F 57.2 °F 30.2 in West 3.8 mph 5.8 mph 98 % 0 in
04:02 56.8 °F 57.2 °F 30.3 in NW 4.3 mph 5.8 mph 98 % 0 in
04:07 56.8 °F 57.2 °F 30.3 in NNW 3.4 mph 5.4 mph 98 % 0 in
04:12 56.7 °F 57.2 °F 30.3 in Calm   6.5 mph 98 % 0 in
04:17 56.7 °F 57.2 °F 30.3 in Calm   6.5 mph 98 % 0 in
04:27 56.5 °F 57.2 °F 30.3 in NNW 1.1 mph 3.8 mph 98 % 0 in
04:32 56.3 °F 57.2 °F 30.3 in North 1.1 mph 4.7 mph 98 % 0 in
04:37 56.3 °F 57.2 °F 30.3 in NNW 2.5 mph 4.7 mph 98 % 0 in
04:42 56.1 °F 55.4 °F 30.3 in NNW 2 mph 4 mph 98 % 0 in
04:47 55.9 °F 55.4 °F 30.2 in NNW 2.5 mph 4 mph 98 % 0 in
04:52 55.8 °F 55.4 °F 30.2 in Calm   4 mph 98 % 0 in
04:57 55.8 °F 55.4 °F 30.2 in Calm   3.6 mph 98 % 0 in
05:02 55.6 °F 55.4 °F 30.3 in Calm   3.6 mph 98 % 0 in
05:07 55.4 °F 55.4 °F 30.3 in Calm   1.6 mph 98 % 0 in
05:12 55.4 °F 55.4 °F 30.3 in Calm   1.6 mph 98 % 0 in
05:17 55.2 °F 55.4 °F 30.3 in Calm   2.5 mph 98 % 0 in
05:22 55.2 °F 55.4 °F 30.3 in NW 3.8 mph 5.4 mph 98 % 0 in
05:28 55.2 °F 55.4 °F 30.3 in North 2.2 mph 5.4 mph 98 % 0 in
05:33 55.2 °F 55.4 °F 30.3 in Calm   4.7 mph 98 % 0 in
05:38 55.2 °F 55.4 °F 30.3 in Calm   5.4 mph 98 % 0 in
05:43 55.2 °F 55.4 °F 30.3 in NNE 4.3 mph 5.4 mph 98 % 0 in
05:48 55.2 °F 55.4 °F 30.3 in North 1.3 mph 5.4 mph 98 % 0 in
05:53 55.4 °F 55.4 °F 30.3 in Calm   5.8 mph 98 % 0 in
05:58 55.4 °F 55.4 °F 30.3 in North 0.9 mph 5.8 mph 98 % 0 in
06:03 55.4 °F 55.4 °F 30.3 in North 2.9 mph 6.3 mph 98 % 0 in
06:08 55.4 °F 55.4 °F 30.3 in North 6.5 mph 7.2 mph 98 % 0 in
06:13 55.4 °F 55.4 °F 30.3 in North 2.5 mph 7.2 mph 98 % 0 in
06:18 55.2 °F 55.4 °F 30.3 in North 1.1 mph 6.9 mph 98 % 0 in
06:23 55.2 °F 55.4 °F 30.3 in Calm   6.9 mph 98 % 0 in
06:28 55.2 °F 55.4 °F 30.3 in Calm   6.3 mph 98 % 0 in
06:33 55.2 °F 55.4 °F 30.3 in North 5.8 mph 6.3 mph 98 % 0 in
06:38 55.2 °F 55.4 °F 30.3 in Calm   5.8 mph 98 % 0 in
06:43 55 °F 55.4 °F 30.3 in West 2 mph 5.8 mph 98 % 0 in
06:48 55 °F 55.4 °F 30.3 in North 6.5 mph 6.5 mph 98 % 0 in
06:53 55 °F 55.4 °F 30.3 in WNW 3.6 mph 6.5 mph 98 % 0 in
06:58 55 °F 55.4 °F 30.3 in Calm   6.5 mph 98 % 0 in
07:03 55 °F 55.4 °F 30.3 in Calm   5.6 mph 98 % 0 in
07:08 55 °F 55.4 °F 30.3 in Calm   4.9 mph 98 % 0 in
07:13 55 °F 55.4 °F 30.3 in Calm   5.4 mph 98 % 0 in
07:18 55 °F 55.4 °F 30.3 in NNW 2.9 mph 6 mph 98 % 0 in
07:23 55 °F 55.4 °F 30.3 in North 3.4 mph 6.3 mph 98 % 0 in
07:28 54.9 °F 55.4 °F 30.3 in NNW 3.8 mph 6.3 mph 98 % 0 in
07:33 54.9 °F 55.4 °F 30.3 in Calm   5.6 mph 98 % 0 in
07:38 54.9 °F 55.4 °F 30.3 in NNW 2.2 mph 6 mph 98 % 0 in
07:43 54.7 °F 55.4 °F 30.3 in North 3.4 mph 7.4 mph 98 % 0 in
07:48 54.5 °F 55.4 °F 30.3 in North 0.9 mph 7.4 mph 98 % 0 in
07:53 54.3 °F 55.4 °F 30.3 in NNW 2.9 mph 6 mph 98 % 0 in
07:58 54.1 °F 55.4 °F 30.3 in NW 0.9 mph 6 mph 98 % 0 in
08:03 53.8 °F 53.6 °F 30.3 in NNW 1.1 mph 6.3 mph 98 % 0 in
08:08 53.6 °F 53.6 °F 30.3 in NNW 5.4 mph 6.5 mph 97 % 0 in
08:13 53.4 °F 53.6 °F 30.3 in NNW 4.3 mph 6.5 mph 97 % 0 in
08:18 53.2 °F 51.8 °F 30.3 in Calm   7.4 mph 97 % 0 in
08:23 52.9 °F 51.8 °F 30.3 in Calm   7.4 mph 97 % 0 in
08:28 52.9 °F 51.8 °F 30.3 in Calm   4.3 mph 97 % 0 in
08:33 52.7 °F 51.8 °F 30.3 in NNW 4.3 mph 4.3 mph 97 % 0 in
08:43 52.7 °F 51.8 °F 30.3 in NNW 2.5 mph 6.5 mph 97 % 0 in
08:48 52.7 °F 51.8 °F 30.4 in WNW 2.7 mph 6.5 mph 97 % 0 in
08:53 52.5 °F 51.8 °F 30.4 in Calm   5.8 mph 97 % 0 in
08:58 52.5 °F 51.8 °F 30.4 in Calm   6 mph 96 % 0 in
09:03 52.5 °F 51.8 °F 30.4 in NNW 2.2 mph 6 mph 96 % 0 in
09:08 52.5 °F 51.8 °F 30.4 in NW 2.5 mph 5.8 mph 96 % 0 in
09:13 52.7 °F 51.8 °F 30.4 in NNW 3.8 mph 4.7 mph 97 % 0 in
09:18 52.9 °F 51.8 °F 30.4 in NNW 3.8 mph 4.9 mph 96 % 0 in
09:23 52.9 °F 51.8 °F 30.4 in Calm   6.3 mph 96 % 0 in
09:28 53.1 °F 51.8 °F 30.4 in NNW 4.3 mph 6.3 mph 96 % 0 in
09:33 53.2 °F 51.8 °F 30.4 in NNW 3.1 mph 5.4 mph 96 % 0 in
09:38 53.4 °F 51.8 °F 30.4 in NNW 1.3 mph 7.4 mph 95 % 0 in
09:43 53.8 °F 53.6 °F 30.4 in Calm   7.4 mph 95 % 0 in
09:48 54.1 °F 53.6 °F 30.4 in Calm   5.4 mph 95 % 0 in
09:53 54.5 °F 55.4 °F 30.4 in Calm   4.3 mph 96 % 0 in
09:58 54.9 °F 53.6 °F 30.4 in NW 2.2 mph 4 mph 95 % 0 in
10:03 54.5 °F 53.6 °F 30.4 in WNW 4 mph 7.4 mph 94 % 0 in
10:08 54.9 °F 53.6 °F 30.4 in NNE 3.8 mph 7.4 mph 94 % 0 in
10:13 55.2 °F 53.6 °F 30.4 in WNW 3.6 mph 7.4 mph 94 % 0 in
10:18 55.6 °F 53.6 °F 30.4 in North 5.8 mph 9.8 mph 93 % 0 in
10:23 55.9 °F 53.6 °F 30.4 in NW 9.4 mph 9.8 mph 91 % 0 in
10:28 56.1 °F 53.6 °F 30.4 in NW 4.3 mph 9.4 mph 91 % 0 in
10:33 56.3 °F 55.4 °F 30.4 in NNW 4.9 mph 8.5 mph 91 % 0 in
10:38 56.5 °F 53.6 °F 30.4 in WNW 5.6 mph 8.5 mph 90 % 0 in
10:43 56.8 °F 53.6 °F 30.4 in NNW 2.5 mph 8.1 mph 90 % 0 in
10:48 57 °F 53.6 °F 30.4 in NNW 4.3 mph 7.8 mph 88 % 0 in
10:54 57.2 °F 53.6 °F 30.4 in NNE 6.3 mph 8.5 mph 88 % 0 in
10:59 57.7 °F 55.4 °F 30.4 in NNW 5.6 mph 8.5 mph 88 % 0 in
11:04 57.7 °F 55.4 °F 30.4 in North 1.6 mph 7.6 mph 87 % 0 in
11:09 57.9 °F 55.4 °F 30.4 in WNW 3.8 mph 7.4 mph 87 % 0 in
11:14 58.5 °F 55.4 °F 30.4 in North 2.9 mph 7.6 mph 86 % 0 in
11:19 59.4 °F 55.4 °F 30.4 in North 4.9 mph 7.6 mph 85 % 0 in
11:24 58.5 °F 53.6 °F 30.4 in NNW 5.8 mph 9.6 mph 83 % 0 in
11:29 57.6 °F 53.6 °F 30.4 in North 4.7 mph 10.7 mph 83 % 0 in
11:34 57.2 °F 51.8 °F 30.4 in NNW 5.4 mph 10.7 mph 83 % 0 in
11:39 57.7 °F 53.6 °F 30.4 in North 7.4 mph 9.6 mph 83 % 0 in
11:44 58.1 °F 53.6 °F 30.4 in NW 9.8 mph 9.8 mph 83 % 0 in
11:49 58.5 °F 53.6 °F 30.4 in NW 7.2 mph 9.8 mph 82 % 0 in
11:54 58.6 °F 53.6 °F 30.4 in NW 4.7 mph 9.8 mph 81 % 0 in
11:59 58.8 °F 53.6 °F 30.4 in NE 7.6 mph 13.9 mph 80 % 0 in
12:04 59.2 °F 51.8 °F 30.4 in NNW 11.2 mph 13.9 mph 78 % 0 in
12:09 59.5 °F 51.8 °F 30.4 in North 7.4 mph 15.9 mph 74 % 0 in
12:15 59.9 °F 51.8 °F 30.4 in NNW 8.7 mph 14.5 mph 74 % 0 in
12:20 60.1 °F 51.8 °F 30.5 in North 8.1 mph 11.4 mph 74 % 0 in
12:25 59.9 °F 51.8 °F 30.5 in NNE 8.5 mph 11.4 mph 72 % 0 in
12:30 59.9 °F 51.8 °F 30.5 in NNE 9.8 mph 10.1 mph 71 % 0 in
12:35 60.3 °F 51.8 °F 30.4 in North 7.8 mph 9.8 mph 72 % 0 in
12:40 60.6 °F 51.8 °F 30.4 in WNW 6.5 mph 11 mph 72 % 0 in
12:45 60.3 °F 50 °F 30.4 in North 8.1 mph 11 mph 68 % 0 in
12:50 60.6 °F 50 °F 30.4 in NNW 3.8 mph 10.3 mph 68 % 0 in
12:55 60.3 °F 48.2 °F 30.4 in North 2.5 mph 10.3 mph 66 % 0 in
13:00 61.3 °F 50 °F 30.4 in WNW 7.2 mph 9.4 mph 67 % 0 in
13:05 60.8 °F 50 °F 30.4 in North 5.4 mph 10.1 mph 67 % 0 in
13:10 59.7 °F 48.2 °F 30.4 in North 7.2 mph 10.3 mph 65 % 0 in
13:15 59.5 °F 48.2 °F 30.4 in North 5.6 mph 10.3 mph 67 % 0 in
13:20 60.4 °F 50 °F 30.4 in NNW 6.5 mph 9.8 mph 69 % 0 in
13:25 60.8 °F 50 °F 30.4 in NNE 5.6 mph 9.2 mph 68 % 0 in
13:30 61.2 °F 50 °F 30.4 in NNE 7.2 mph 10.3 mph 66 % 0 in
13:35 61.2 °F 48.2 °F 30.4 in North 3.6 mph 11 mph 63 % 0 in
13:40 60.6 °F 48.2 °F 30.4 in NNW 6.5 mph 11 mph 64 % 0 in
13:45 60.1 °F 48.2 °F 30.4 in NNW 7.8 mph 10.3 mph 65 % 0 in
13:50 59.9 °F 50 °F 30.4 in North 6.5 mph 8.1 mph 68 % 0 in
13:55 60.3 °F 50 °F 30.4 in NE 7.8 mph 10.1 mph 68 % 0 in
14:00 61.2 °F 50 °F 30.4 in North 6.3 mph 10.1 mph 67 % 0 in
14:05 62.1 °F 50 °F 30.4 in NNW 2.7 mph 8.5 mph 65 % 0 in
14:10 61.2 °F 50 °F 30.4 in North 1.6 mph 7.8 mph 65 % 0 in
14:15 59.7 °F 48.2 °F 30.4 in NNE 6.5 mph 10.1 mph 65 % 0 in
14:20 58.8 °F 48.2 °F 30.4 in NNE 4 mph 10.1 mph 66 % 0 in
14:25 59.5 °F 48.2 °F 30.4 in North 3.8 mph 8.9 mph 67 % 0 in
14:30 61 °F 50 °F 30.4 in NNW 3.4 mph 7.2 mph 67 % 0 in
14:35 61.2 °F 48.2 °F 30.4 in North 7.6 mph 11 mph 62 % 0 in
14:40 61.7 °F 50 °F 30.4 in North 5.8 mph 11 mph 64 % 0 in
14:45 62.2 °F 48.2 °F 30.4 in NNE 8.7 mph 8.7 mph 62 % 0 in
14:50 61.3 °F 48.2 °F 30.4 in North 8.5 mph 9.8 mph 61 % 0 in
14:55 60.1 °F 46.4 °F 30.4 in North 5.6 mph 9.8 mph 61 % 0 in
15:00 59.7 °F 48.2 °F 30.4 in North 5.6 mph 8.5 mph 63 % 0 in
15:05 61.2 °F 50 °F 30.4 in West 2.5 mph 5.8 mph 66 % 0 in
15:11 62.4 °F 50 °F 30.4 in WNW 5.4 mph 8.5 mph 63 % 0 in
15:16 61 °F 46.4 °F 30.4 in WNW 4.3 mph 12.3 mph 58 % 0 in
15:21 60.6 °F 48.2 °F 30.4 in WNW 1.6 mph 12.3 mph 62 % 0 in
15:26 61.5 °F 48.2 °F 30.4 in NNW 5.6 mph 8.9 mph 63 % 0 in
15:31 61.7 °F 50 °F 30.4 in NNW 7.6 mph 8.9 mph 63 % 0 in
15:36 62.1 °F 48.2 °F 30.4 in WNW 4.3 mph 8.9 mph 62 % 0 in
15:41 62.1 °F 48.2 °F 30.4 in North 8.7 mph 9.6 mph 61 % 0 in
15:46 61.7 °F 48.2 °F 30.4 in North 2.5 mph 9.6 mph 60 % 0 in
15:51 60.8 °F 48.2 °F 30.4 in North 3.8 mph 8.7 mph 62 % 0 in
15:56 60.4 °F 48.2 °F 30.4 in North 5.6 mph 7.2 mph 62 % 0 in
16:01 60.1 °F 48.2 °F 30.4 in WNW 3.4 mph 6.5 mph 65 % 0 in
16:06 59.4 °F 48.2 °F 30.4 in NNW 7.8 mph 8.7 mph 64 % 0 in
16:11 58.8 °F 48.2 °F 30.4 in NNW 3.6 mph 10.3 mph 67 % 0 in
16:16 58.5 °F 48.2 °F 30.4 in NW 3.8 mph 10.3 mph 67 % 0 in
16:21 58.1 °F 48.2 °F 30.4 in North 3.1 mph 7.2 mph 69 % 0 in
16:26 59 °F 50 °F 30.4 in NNW 2.9 mph 6.3 mph 70 % 0 in
16:31 59.5 °F 50 °F 30.4 in NNW 1.6 mph 8.9 mph 69 % 0 in
16:36 60.3 °F 50 °F 30.4 in WNW 3.4 mph 8.9 mph 70 % 0 in
16:41 60.6 °F 50 °F 30.4 in NNW 4 mph 7.8 mph 69 % 0 in
16:51 60.6 °F 50 °F 30.4 in NW 7.4 mph 8.9 mph 68 % 0 in
16:56 60.4 °F 48.2 °F 30.4 in North 3.1 mph 8.9 mph 66 % 0 in
17:01 59.9 °F 50 °F 30.4 in NNW 2.7 mph 8.9 mph 67 % 0 in
17:06 59.5 °F 50 °F 30.4 in North 6 mph 6.9 mph 69 % 0 in
17:11 58.8 °F 50 °F 30.4 in NNW 3.6 mph 7.6 mph 70 % 0 in
17:16 58.5 °F 50 °F 30.5 in NNW 1.3 mph 7.6 mph 71 % 0 in
17:26 57.7 °F 50 °F 30.5 in NNW 5.4 mph 8.5 mph 75 % 0 in
17:31 57.4 °F 50 °F 30.5 in NNE 2.9 mph 10.1 mph 76 % 0 in
17:36 57.2 °F 50 °F 30.5 in North 4.9 mph 10.1 mph 75 % 0 in
17:41 56.8 °F 50 °F 30.5 in NW 3.8 mph 10.1 mph 76 % 0 in
17:46 56.7 °F 50 °F 30.5 in NNW 2.7 mph 7.8 mph 78 % 0 in
17:51 56.7 °F 50 °F 30.5 in NW 2.7 mph 7.8 mph 78 % 0 in
17:56 56.7 °F 50 °F 30.5 in North 3.1 mph 5.8 mph 79 % 0 in
18:01 56.5 °F 51.8 °F 30.5 in North 5.8 mph 5.8 mph 80 % 0 in
18:06 56.3 °F 51.8 °F 30.5 in NNW 4.5 mph 5.8 mph 80 % 0 in
18:11 56.1 °F 50 °F 30.5 in NNE 2.5 mph 6.3 mph 81 % 0 in
18:12 56.1 °F 50 °F 30.5 in NNE 2.5 mph 6.3 mph 81 % 0 in
18:18 55.9 °F 50 °F 30.5 in Calm   6.3 mph 81 % 0 in
18:23 55.9 °F 51.8 °F 30.5 in Calm   5.4 mph 82 % 0 in
18:28 55.8 °F 51.8 °F 30.5 in Calm     83 % 0 in
18:33 55.8 °F 51.8 °F 30.5 in Calm     83 % 0 in
18:38 55.6 °F 50 °F 30.5 in Calm     83 % 0 in
18:43 55.4 °F 50 °F 30.5 in Calm     83 % 0 in
18:48 55.2 °F 51.8 °F 30.5 in Calm     84 % 0 in
18:53 55 °F 51.8 °F 30.5 in Calm     85 % 0 in
18:58 54.5 °F 51.8 °F 30.5 in Calm     87 % 0 in
19:03 54.1 °F 51.8 °F 30.5 in Calm     88 % 0 in
19:08 53.8 °F 51.8 °F 30.5 in Calm     89 % 0 in
19:13 53.6 °F 51.8 °F 30.5 in Calm     89 % 0 in
19:18 53.4 °F 50 °F 30.5 in Calm     90 % 0.01 in
19:23 53.2 °F 50 °F 30.5 in Calm     90 % 0.01 in
19:28 53.2 °F 50 °F 30.5 in Calm     90 % 0.01 in
19:33 53.1 °F 50 °F 30.5 in Calm     90 % 0.01 in
19:38 53.1 °F 50 °F 30.5 in Calm     91 % 0.01 in
19:43 52.9 °F 50 °F 30.5 in Calm     91 % 0.01 in
19:48 52.5 °F 50 °F 30.5 in Calm     91 % 0.01 in
19:53 52 °F 50 °F 30.5 in Calm     91 % 0.01 in
19:58 51.6 °F 50 °F 30.5 in Calm     91 % 0.01 in
20:03 51.3 °F 48.2 °F 30.5 in Calm     91 % 0.01 in
20:08 50.9 °F 48.2 °F 30.5 in Calm     91 % 0.01 in
20:13 50.7 °F 48.2 °F 30.5 in Calm     92 % 0 in
20:18 50.5 °F 48.2 °F 30.5 in Calm     92 % 0 in
20:24 50.5 °F 48.2 °F 30.5 in Calm     93 % 0 in
20:29 50.5 °F 48.2 °F 30.5 in Calm     93 % 0 in
20:34 50.4 °F 48.2 °F 30.5 in Calm     94 % 0 in
20:39 50.2 °F 48.2 °F 30.5 in Calm     94 % 0 in
20:41 50.4 °F 48.2 °F 30.5 in Calm     94 % 0 in
20:46 50.2 °F 48.2 °F 30.5 in Calm     94 % 0 in
20:51 50 °F 48.2 °F 30.5 in Calm     94 % 0 in
20:56 50.2 °F 48.2 °F 30.5 in Calm     95 % 0 in
21:01 50 °F 48.2 °F 30.5 in Calm     95 % 0 in
21:06 49.5 °F 48.2 °F 30.5 in Calm     95 % 0 in
21:11 48.9 °F 48.2 °F 30.5 in Calm     94 % 0 in
21:16 48.9 °F 48.2 °F 30.5 in Calm     94 % 0 in
21:21 48.4 °F 46.4 °F 30.5 in Calm     94 % 0 in
21:26 48.2 °F 46.4 °F 30.5 in Calm     94 % 0 in
21:31 48 °F 48.2 °F 30.5 in Calm     95 % 0 in
21:36 47.5 °F 46.4 °F 30.5 in Calm     95 % 0 in
21:41 47.1 °F 46.4 °F 30.5 in Calm     95 % 0 in
21:46 46.9 °F 46.4 °F 30.5 in Calm     95 % 0 in
21:51 46.6 °F 46.4 °F 30.5 in Calm     95 % 0 in
21:56 46.4 °F 46.4 °F 30.5 in Calm     95 % 0 in
22:01 46.6 °F 46.4 °F 30.5 in Calm     95 % 0 in
22:06 46.4 °F 46.4 °F 30.5 in Calm     96 % 0 in
22:11 46 °F 44.6 °F 30.5 in Calm     96 % 0 in
22:16 45.9 °F 44.6 °F 30.5 in Calm     96 % 0 in
22:21 45.9 °F 44.6 °F 30.5 in Calm     97 % 0 in
22:26 46.2 °F 46.4 °F 30.5 in Calm     97 % 0 in
22:36 46.4 °F 46.4 °F 30.5 in Calm     97 % 0 in
22:41 46.4 °F 46.4 °F 30.5 in Calm     97 % 0 in
22:46 46.4 °F 46.4 °F 30.5 in Calm     97 % 0 in
22:51 46.2 °F 46.4 °F 30.5 in Calm     98 % 0 in
22:56 46.2 °F 46.4 °F 30.5 in Calm     98 % 0 in
23:06 45.9 °F 46.4 °F 30.5 in Calm     98 % 0 in
23:11 45.9 °F 46.4 °F 30.5 in Calm     98 % 0 in
23:16 45.7 °F 46.4 °F 30.5 in Calm     98 % 0 in
23:21 45.7 °F 46.4 °F 30.5 in Calm     98 % 0 in
23:26 45.7 °F 46.4 °F 30.5 in Calm     98 % 0 in
23:31 45.5 °F 46.4 °F 30.5 in Calm     98 % 0 in
23:36 45.1 °F 44.6 °F 30.5 in Calm     98 % 0 in
23:41 44.8 °F 44.6 °F 30.5 in Calm     98 % 0 in
23:46 44.4 °F 44.6 °F 30.5 in Calm     98 % 0 in
23:51 44.4 °F 44.6 °F 30.5 in Calm     98 % 0 in
23:57 44.2 °F 44.6 °F 30.5 in Calm     98 % 0 in
Le Gheer Warneton
Courtoisie de Weather Underground - 2.25 mb

Mise a jour : 17-12-17 03:21:12
Généré par Cumulus 1.9.4 (1099)